Location: Home
(42.5358°N, 72.7383°W)
Time: 14:40:17
(UTC-05:00)

Explorer 11/Cluster Stage 4 - Pass Details

Date: 22 December 2025
Orbit: 463 x 1179 km, 28.8° (Epoch: 21 January)

Event Time Altitude Azimuth Distance (km) Brightness Sun altitude
Rises 19:46:48 0° 256° (WSW) 4,057 11.1 -36.8°
Reaches altitude 10° 19:51:46 10° 230° (SW) 3,071 10.0 -37.7°
Maximum altitude 19:54:40 12° 207° (SSW) 2,847 9.6 -38.2°
Enters shadow 19:56:34 11° 192° (SSW) 2,896 9.5 -38.6°
